AirNav   Air Wisconsin Up To $57,000 Bonus
 
 639 users online  

E26 Lea County (Jal) Airport
Jal, New Mexico, USA

GOING TO JAL?


FAA INFORMATION EFFECTIVE 26 MARCH 2020

Location

FAA Identifier: E26
Lat/Long: 32-07-51.8820N 103-09-17.4620W
32-07.864700N 103-09.291033W
32.1310783,-103.1548506
(estimated)
Elevation: 3118 ft. / 950.4 m (surveyed)
Variation: 09E (1985)
From city: 3 miles NE of JAL, NM
Time zone: UTC -6 (UTC -7 during Standard Time)
Zip code: 88252

Airport Operations

Airport use: Open to the public
Activation date: 10/1953
Control tower: no
ARTCC: FORT WORTH CENTER
FSS: ALBUQUERQUE FLIGHT SERVICE STATION
NOTAMs facility: ABQ (NOTAM-D service available)
Attendance: UNATNDD
Wind indicator: lighted
Segmented circle: yes
Lights: MIRL RY 01/19 PRESET LOW INTST; TO INCR INTST ACTVT - CTAF.
Beacon: white-green (lighted land airport)
Operates sunset to sunrise.

Airport Communications

CTAF: 122.9

Nearby radio navigation aids

VOR radial/distance  VOR name  Freq  Var
INKr005/16.0WINK VORTAC112.1011E
HOBr158/31.0HOBBS VORTAC111.0011E

Airport Services

Parking: tiedowns
Airframe service: NONE
Powerplant service: NONE
Bottled oxygen: NONE
Bulk oxygen: NONE

Runway Information

Runway 1/19

Dimensions: 4704 x 60 ft. / 1434 x 18 m
Surface: asphalt, in good condition
Weight bearing capacity: 
PCN 4 /F/C/Y/T
Single wheel: 23.0
Runway edge lights: medium intensity
RUNWAY 1  RUNWAY 19
Latitude: 32-07.514333N32-08.256333N
Longitude: 103-09.422500W103-09.156167W
Elevation: 3097.0 ft.3104.0 ft.
Traffic pattern: leftleft
Runway heading: 008 magnetic, 017 true188 magnetic, 197 true
Markings: basic, in good conditionbasic, in good condition
Touchdown point: yes, no lightsyes, no lights
Obstructions: 3 ft. brush, 201 ft. from runway, 120 ft. right of centerline
+2-3 FT BRUSH 0-200 FT FM THR, 115-250 FT RIGHT OF CNTRLN AND 100 FT LEFT OF CNTRLN.
10 ft. brush, 201 ft. from runway, 125 ft. left of centerline
+6-10 FT BRUSH 0-200 FT FM THR, 110 FT LEFT AND 130 FT RIGHT OF CNTRLN.

Runway 9/27

Dimensions: 2604 x 50 ft. / 794 x 15 m
Surface: asphalt, in fair condition
Weight bearing capacity: 
PCN 3 /F/B/Y/T
Single wheel: 12.0
RUNWAY 9  RUNWAY 27
Latitude: 32-07.866833N32-07.788000N
Longitude: 103-09.542167W103-09.046000W
Elevation: 3118.0 ft.3097.0 ft.
Traffic pattern: leftleft
Runway heading: 092 magnetic, 101 true272 magnetic, 281 true
Displaced threshold: 40 ft.45 ft.
Markings: basic, in good conditionbasic, in good condition
Touchdown point: yes, no lightsyes, no lights
Obstructions: 4 ft. brush, 201 ft. from runway
RY 09 +4 FT FENCE 50 FT FM THR, +10 FT ROAD 40 FT FM THR.
30 ft. pline, marked, 880 ft. from runway, 22:1 slope to clear
+4 FT FENCE 15' FM END, +5 FT BRUSH 20 FT FM RY END, +10 FT ROAD 10 FT FM THR.

Airport Ownership and Management from official FAA records

Ownership: Publicly-owned
Owner: LEA COUNTY
PO BOX 1106
HOBBS, NM 88241-1106
Phone 575-391-2934
Manager: CORY NEEDHAM
PO BOX 1106
HOBBS, NM 88241-1106
Phone 575-391-2934
PUBLIC WORKS DIRECTOR.

Airport Operational Statistics

Aircraft based on the field: 7
Single engine airplanes: 5
Multi engine airplanes: 1
Jet airplanes: 1
    
Aircraft operations: avg 57/week *
83% transient general aviation
17% local general aviation
* for 12-month period ending 04 April 2017

Additional Remarks

5 FT LINE OF SIGHT NOT AVBL BTN RYS 01/19 AND 09/27 ENDS.
EXTENSIVE OIL WELL DRILLING ACTIVITY ON & INVOF ARPT.
+20 FT PUMP JACK 990 FT FM RY 19 THLD 50 FT RIGHT OF CENTERLINE.
RY 09/27 +4-7 FT BRUSH 50 FT FM CNTRLN BOTH SIDES LENGTH OF RUNWAY.
RWY 01 - +3' STEEL POSTS 145 FT. FROM THE THRESHOLD, ON CENTERLINE, 40 FT. AND 80 FT. LEFT , 110 FT. RIGHT OF CENTERLINE OVER BURIED OIL LINE.
FOR CD CTC FORT WORTH ARTCC AT 817-858-7584.

Instrument Procedures

There are no published instrument procedures at E26.

Some nearby airports with instrument procedures:

KINK - Winkler County Airport (21 nm S)
KHOB - Lea County Regional Airport (34 nm N)
E11 - Andrews County Airport (34 nm E)
E01 - Roy Hurd Memorial Airport (35 nm S)
KODO - Odessa Airport-Schlemeyer Field (41 nm E)
 
Loc | Ops | Rwys | IFR | FBO | Links
Com | Nav | Svcs | Stats | Notes

Chandler Aviation LLC
 
Area around E26 (Lea County (Jal) Airport)
 
Road maps at: MapQuest Bing Google
 
Aerial photo
WARNING: Photo may not be current or correct
Aerial photo of E26 (Lea County (Jal) Airport)
Do you have a better or more recent aerial photo of Lea County (Jal) Airport that you would like to share? If so, please send us your photo.

 
Sectional chart

 
Airport diagram
Diagram of E26 (Lea County (Jal) Airport)
Download PDF
of official airport diagram from the FAA

 
Airport distance calculator
Flying to Lea County (Jal) Airport? Find the distance to fly.

From to E26

Sunrise and sunset
Times for 04-Apr-2020
 Local
(UTC-6)
 Zulu
(UTC)
Morning civil twilight06:1212:12
Sunrise06:3712:37
Sunset19:1401:14
Evening civil twilight19:3901:39

Current date and time
Zulu (UTC)  05-Apr-2020 03:28:55
Local (UTC-6)  04-Apr-2020 21:28:55
 
METAR
KINK 
21nm S 
050253Z AUTO 14008KT 10SM CLR 10/04 A2998 RMK AO2 SLP139 T01000044 53009
KHOB 
32nm N 
050315Z AUTO 14009KT 10SM CLR 07/05 A2998 RMK AO2
KE11 
34nm E 
050315Z AUTO 13005KT 10SM OVC012 08/05 A3001 RMK AO2 T00750051
KODO 
40nm E 
050323Z AUTO 15007KT 10SM BKN011 08/05 A3001 RMK AO2 T00780050
KGNC 
41nm NE 
050315Z AUTO 13005KT 10SM CLR 06/05 A3004 RMK AO2 T00620046
TAF
KINK 
21nm S 
041720Z 0418/0518 09009KT P6SM OVC015 FM042000 11011KT P6SM SCT250 FM050900 12009KT P6SM OVC025
NOTAMs
Click for the latest NOTAMs
NOTAMs are issued by the DoD/FAA and will open in a separate window not controlled by AirNav.

 

 
 

Would you like to see your business listed on this page?

 If your business provides an interesting product or service to pilots, flight crews, aircraft, or users of the Lea County (Jal) Airport, you should consider listing it here.  To start the listing process, click on the button below
 
Add a business
 

Other Pages about Lea County (Jal) Airport

www.leacounty-nm.org/Jal%20Airport.htm
 
Update a link
 
Copyright © AirNav, LLC. All rights reserved. Privacy Policy  Contact